星链-6201 (STARLINK-6201 )

导读

STARLINK-6201是美国于2023年5月10日发射的星链卫星,属于SpaceX星链互联网星座项目。该卫星旨在为全球偏远地区、海洋航线等提供高速低延迟宽带互联网服务,依托批量组网模式强化全球覆盖能力,延续星链项目低成本、高密度部署的特点,推进全球卫星互联网组网建设。

基本信息
目录编号:
56486
目录名称:
STARLINK-6201
国际标识:
2023-064AQ
轨道中心:
EARTH
卫星名称:
星链-6201
卫星全名:
星链-6201 (STARLINK-6201 )
卫星状态:
已陨落 最后检测时间 2026-03-22
发射日期:
2023-05-10 UTC
国别 :
美国 (US)
星等 :
--
该卫星已列入 空间交会检测服务 Space Conjunction Data Service (SCDS) ,当前飞行风险评估等级: 无高风险
轨道信息
数据来源 国际轨道数据
星历时间: 2026-03-22T03:57:01+0800
轨道信息已过期174天
半长轴: 6528.216km
偏心率: 0.0007508
轨道倾角: 69.975°
近地点辐角 259.884°
升交点赤经 76.415°
平近点角 100.155°
近地点: 145.177km
远地点: 154.981km
周期: 87.489分钟
每日圈数: 16.459289
详细信息
固有亮度:
5
最大亮度:
2.5
卫星平台:
Starlink v1.5
覆盖范围:
全球
运营商:
太空探索技术公司
运营商所在国:
美国
制造商(研发单位):
太空探索技术公司
制造商所在国:
美国
使用方式:
暂无
卫星简介
星链(Starlink)计划是由太空探索技术公司(SpaceX)提出的一个巨型低轨卫星互联网星座项目,计划在2019年至2024年间在太空搭建由约1.2万颗卫星组成的“星链”网络,其中1584颗将部署在地球上空550千米处的近地轨道,并从2020年开始工作。该卫星仍在工作。
与全量物体交会距离演化趋势
与全量物体交会风险概率演化趋势